Weather History for Minneapolis Flying Cloud, MN

Change the Weather History Date:

Thursday, April 18, 2013

  Actual Average Record
Temperature  
Mean Temperature 34 °F -  
Max Temperature 35 °F 56 °F 89 °F (2004)
Min Temperature 32 °F 37 °F 26 °F (2014)
Degree Days  
Heating Degree Days 32    
Moisture  
Dew Point 30 °F    
Average Humidity 88    
Maximum Humidity 96    
Minimum Humidity 81    
Precipitation  
Precipitation 0.46 in - - ()
Sea Level Pressure  
Sea Level Pressure 29.63 in    
Wind  
Wind Speed 13 mph (North)    
Max Wind Speed 25 mph    
Max Gust Speed 37 mph    
Visibility 2 miles    
Events Fog , Rain , Snow    
Averages and records for this station are not official NWS values.
T = Trace of Precipitation, MM = Missing Value Source: NWS Daily Summary

Daily Weather History Graph

Daily Weather History Graph

Search for Another Location

Airport:

Trip Planner

Search our weather history database for the weather conditions in past years. The results will help you decide how hot, cold, wet, or windy it might be!

Date:

Astronomy

Apr. 18, 2013 Rise Set
Actual Time 6:23 AM CDT 8:03 PM CDT
Civil Twilight 5:52 AM CDT 8:34 PM CDT
Nautical Twilight 5:15 AM CDT 9:11 PM CDT
Astronomical Twilight 4:35 AM CDT 9:52 PM CDT
Moon 12:33 PM CDT (4/18) 2:21 AM CDT (4/18)
Length of Visible Light 14h 41m
Length of Day
13h 39m
First Quarter, 52% of the Moon is Illuminated
Apr 18
First Quarter
Apr 25
Full
May 2
Last Quarter
May 9
New
May 17
First Quarter

Hourly Weather History & Observations

Time (CDT) Temp. Windchill Dew Point Humidity Pressure Visibility Wind Dir Wind Speed Gust Speed Precip Events Conditions
12:53 AM 35.1 °F 26.9 °F 33.1 °F 92% 29.93 in 2.5 mi North 11.5 mph - 0.03 in Snow Light Snow
1:10 AM 35.6 °F 28.0 °F 32.0 °F 87% 29.87 in 3.0 mi NNE 10.4 mph - 0.00 in   Overcast
1:20 AM 35.6 °F 28.0 °F 33.8 °F 93% 29.87 in 4.0 mi North 10.4 mph - 0.01 in Rain Light Rain
1:53 AM 34.0 °F 25.0 °F 32.0 °F 92% 29.86 in 8.0 mi NNE 12.7 mph 19.6 mph 0.01 in   Overcast
2:53 AM 34.0 °F 25.0 °F 30.9 °F 89% 29.83 in 10.0 mi North 12.7 mph 20.7 mph N/A   Overcast
3:53 AM 34.0 °F 26.0 °F 30.9 °F 89% 29.83 in 4.0 mi North 10.4 mph - 0.00 in Rain Light Rain
4:53 AM 33.1 °F 24.9 °F 30.9 °F 92% 29.83 in 4.0 mi North 10.4 mph - 0.00 in Rain Light Rain
5:53 AM 33.1 °F 25.5 °F 30.9 °F 92% 29.80 in 6.0 mi North 9.2 mph - 0.00 in   Overcast
6:53 AM 33.1 °F 23.9 °F 30.0 °F 89% 29.77 in 10.0 mi North 12.7 mph - N/A   Overcast
7:53 AM 32.0 °F 22.1 °F 28.9 °F 88% 29.78 in 10.0 mi North 13.8 mph 23.0 mph N/A   Overcast
8:53 AM 32.0 °F 21.6 °F 28.9 °F 88% 29.72 in 10.0 mi North 15.0 mph 24.2 mph N/A   Overcast
9:53 AM 33.1 °F 24.4 °F 28.9 °F 85% 29.72 in 10.0 mi North 11.5 mph - N/A   Overcast
10:04 AM 33.8 °F 25.3 °F 28.4 °F 81% 29.67 in 10.0 mi NNE 11.5 mph 23.0 mph N/A   Overcast
10:53 AM 33.1 °F 23.9 °F 28.9 °F 85% 29.70 in 3.0 mi NNE 12.7 mph - 0.02 in Rain Ice Pellets
11:20 AM 33.8 °F 25.3 °F 30.2 °F 87% 29.63 in 1.0 mi North 11.5 mph 20.7 mph 0.05 in Snow Light Snow
11:30 AM 33.8 °F 24.8 °F 30.2 °F 87% 29.65 in 0.8 mi NNE 12.7 mph 18.4 mph 0.06 in Snow Light Snow
11:53 AM 33.1 °F 24.4 °F 30.0 °F 89% 29.68 in 0.5 mi North 11.5 mph 17.3 mph 0.09 in Fog , Rain Ice Pellets
12:30 PM 33.8 °F 25.8 °F 30.2 °F 87% 29.62 in 1.0 mi North 10.4 mph - 0.05 in Snow Light Snow
12:44 PM 33.8 °F 25.8 °F 30.2 °F 87% 29.62 in 2.0 mi North 10.4 mph 20.7 mph 0.06 in Snow Light Snow
12:53 PM 33.1 °F 26.1 °F 30.0 °F 89% 29.66 in 1.2 mi North 8.1 mph - 0.07 in Snow Light Snow
1:03 PM 33.8 °F 24.8 °F 30.2 °F 87% 29.62 in 0.8 mi North 12.7 mph - 0.02 in Snow Light Snow
1:15 PM 33.8 °F 24.3 °F 30.2 °F 87% 29.59 in 1.0 mi North 13.8 mph - 0.03 in Snow Light Snow
1:26 PM 33.8 °F 25.3 °F 30.2 °F 87% 29.57 in 0.8 mi North 11.5 mph 20.7 mph 0.04 in Snow Light Snow
1:37 PM 33.8 °F 25.3 °F 30.2 °F 87% 29.58 in 0.5 mi North 11.5 mph - 0.05 in Fog , Snow Snow
1:53 PM 33.1 °F 24.4 °F 30.0 °F 89% 29.62 in 0.5 mi North 11.5 mph - 0.07 in Fog , Snow Light Snow
2:23 PM 33.8 °F 23.2 °F 30.2 °F 87% 29.56 in 1.0 mi North 17.3 mph 23.0 mph 0.01 in Snow Light Snow
2:28 PM 33.8 °F 24.3 °F 30.2 °F 87% 29.56 in 0.8 mi North 13.8 mph 24.2 mph 0.01 in Snow Light Snow
2:35 PM 33.8 °F 25.3 °F 30.2 °F 87% 29.60 in 0.8 mi North 11.5 mph 20.7 mph 0.01 in Snow Light Snow
2:48 PM 33.8 °F 23.2 °F 30.2 °F 87% 29.54 in 0.2 mi North 17.3 mph 24.2 mph 0.03 in Fog , Snow Heavy Snow
2:53 PM 33.1 °F 21.5 °F 30.0 °F 89% 29.56 in 0.2 mi North 19.6 mph 28.8 mph 0.03 in Fog , Snow Heavy Snow
3:53 PM 33.1 °F 22.6 °F 30.9 °F 92% 29.57 in 0.2 mi North 16.1 mph 26.5 mph 0.06 in Fog , Snow Snow
4:08 PM 33.8 °F 24.3 °F 30.2 °F 87% 29.54 in 0.2 mi North 13.8 mph 23.0 mph 0.02 in Fog , Snow Snow
4:22 PM 33.8 °F 23.2 °F 30.2 °F 87% 29.52 in 0.5 mi North 17.3 mph 23.0 mph 0.03 in Fog , Snow Light Snow
4:53 PM 33.1 °F 21.2 °F 30.9 °F 92% 29.55 in 0.2 mi North 20.7 mph 29.9 mph 0.04 in Fog , Snow Snow
5:53 PM 32.0 °F 21.2 °F 30.9 °F 96% 29.53 in 0.2 mi North 16.1 mph 25.3 mph 0.01 in Fog , Snow Snow
6:05 PM 32.0 °F 21.2 °F 30.2 °F 93% 29.52 in 0.5 mi North 16.1 mph 25.3 mph 0.01 in Fog , Snow Snow
6:53 PM 32.0 °F 22.1 °F 30.0 °F 92% 29.54 in 0.5 mi NNW 13.8 mph 20.7 mph 0.01 in Fog , Snow Light Snow
7:19 PM 33.8 °F 23.2 °F 30.2 °F 87% 29.51 in 1.0 mi NNW 17.3 mph 28.8 mph 0.00 in Snow Light Snow
7:37 PM 33.8 °F 21.9 °F 30.2 °F 87% 29.52 in 0.5 mi NNW 21.9 mph 27.6 mph 0.00 in Fog , Snow Light Snow
7:53 PM 33.1 °F 22.2 °F 30.0 °F 89% 29.55 in 0.8 mi NNW 17.3 mph 26.5 mph 0.01 in Snow Light Snow
8:21 PM 32.0 °F 20.1 °F 30.2 °F 93% 29.52 in 0.8 mi NNW 19.6 mph 26.5 mph 0.00 in Snow Light Snow
8:51 PM 32.0 °F 19.2 °F 28.4 °F 87% 29.52 in 1.0 mi NNW 23.0 mph 33.4 mph 0.00 in Snow Light Snow
8:53 PM 32.0 °F 19.5 °F 28.9 °F 88% 29.55 in 1.0 mi NNW 21.9 mph 29.9 mph 0.00 in Snow Light Snow
9:53 PM 32.0 °F 20.5 °F 28.9 °F 88% 29.57 in 1.0 mi NNW 18.4 mph 29.9 mph 0.00 in Snow Light Snow
10:53 PM 32.0 °F 20.1 °F 28.9 °F 88% 29.54 in 1.2 mi NW 19.6 mph 36.8 mph 0.01 in Snow Light Snow
11:06 PM 32.0 °F 18.6 °F 28.4 °F 87% 29.51 in 2.0 mi NNW 25.3 mph 33.4 mph 0.00 in Snow Light Snow
11:15 PM 32.0 °F 19.8 °F 28.4 °F 87% 29.50 in 2.5 mi NW 20.7 mph 34.5 mph 0.00 in Snow Light Snow
11:40 PM 32.0 °F 19.5 °F 28.4 °F 87% 29.50 in 1.8 mi NNW 21.9 mph 31.1 mph 0.00 in Snow Light Snow
11:51 PM 32.0 °F 21.2 °F 28.4 °F 87% 29.50 in 1.0 mi NW 16.1 mph 29.9 mph 0.00 in Snow Light Snow
11:53 PM 32.0 °F 20.1 °F 28.9 °F 88% 29.52 in 0.8 mi NW 19.6 mph 29.9 mph 0.00 in Snow Light Snow